Location: Lake Mineral Wells State Park
(32.8157°N, 98.0290°W)
Time: 04:12:08
(UTC-05:00)

N. Korean satellite - Visible Passes

Search period start: 19 October 2019 00:00
Search period end: 29 October 2019 00:00
Orbit: 455 x 508 km, 97.2° (Epoch: 18 October)

Date Brightness Start Highest point End Pass type
(mag) Time Alt. Az. Time Alt. Az. Time Alt. Az.
19 Oct 9.9 06:35:59 10° NE 06:38:32 18° E 06:41:06 10° SE visible
20 Oct 10.5 19:50:15 10° WSW 19:51:04 11° W 19:51:52 10° W visible
21 Oct 9.3 19:22:49 10° SSW 19:25:37 24° W 19:28:28 10° NW visible
22 Oct 8.8 06:52:48 10° NE 06:56:05 31° E 06:59:23 10° SSE visible
23 Oct 10.2 06:28:37 10° ENE 06:30:41 14° E 06:32:46 10° SE visible
24 Oct 10.1 19:41:20 10° SW 19:43:09 14° W 19:44:59 10° WNW visible
25 Oct 7.4 07:09:57 10° NNE 07:13:34 57° E 07:17:12 10° S visible
25 Oct 8.7 19:14:39 10° SSW 19:17:43 31° W 19:20:50 10° NNW visible
26 Oct 9.3 06:45:09 10° NE 06:48:13 25° E 06:51:18 10° SSE visible
27 Oct 10.4 06:21:30 10° ENE 06:22:47 11° E 06:24:05 10° ESE visible
28 Oct 9.8 19:32:49 10° SW 19:35:12 18° W 19:37:37 10° NW visible
